Location: Newark
(34.0131°N, 4.3314°W)
Time: 16:32:27
(UTC+00:00)

Explorer 11/Cluster Stage 4 - Pass Details

Date: 27 October 2019
Orbit: 467 x 1259 km, 28.8° (Epoch: 14 November)

Event Time Altitude Azimuth Distance (km) Brightness Sun altitude
Rises 05:32:52 0° 231° (SW) 3,298 - -12.9°
Exits shadow 05:34:04 - 227° (SW) 2,874 9.1 -12.6°
Reaches altitude 10° 05:36:01 10° 218° (SW) 2,212 8.6 -12.2°
Maximum altitude 05:40:03 24° 166° (SSE) 1,331 8.0 -11.4°
Drops below altitude 10° 05:43:31 10° 112° (ESE) 1,867 10.0 -10.7°
Sets 05:45:56 0° 97° (E) 2,668 11.7 -10.2°
